EW6614 Weather Reports


Display with metric or nautical units.
time (UTC)temp
F
wind
direction
speed
MPH
gust
MPH
rain 1hr
in
rain 24hr
in
rain mn
in
humidity
%
barometer
mb
20260505234555 80 185 4.0 15.0 0.00 0.00 0.00 57 1005.6
20260505234539 80 152 5.0 9.0 0.00 0.00 0.00 69 1005.3
20260505233139 80 196 6.0 10.0 0.00 0.00 0.00 69 1005.3
20260505233105 80 176 6.0 11.0 0.00 0.00 0.00 57 1005.6
20260505231558 81 175 4.0 12.0 0.00 0.00 0.00 57 1005.7
20260505231550 81 158 4.0 11.0 0.00 0.00 0.00 68 1005.3
20260505230056 81 193 6.0 13.0 0.00 0.00 0.00 56 1005.8
20260505230038 81 201 5.0 13.0 0.00 0.00 0.00 68 1005.5
20260505224554 81 204 7.0 15.0 0.00 0.00 0.00 55 1005.8
20260505224537 82 150 6.0 14.0 0.00 0.00 0.00 67 1005.4
20260505223054 82 175 4.0 12.0 0.00 0.00 0.00 55 1005.7
20260505223036 82 175 5.0 10.0 0.00 0.00 0.00 66 1005.4
20260505221557 81 130 5.0 15.0 0.00 0.00 0.00 54 1005.7
20260505221537 81 214 7.0 13.0 0.00 0.00 0.00 66 1005.4
20260505220055 82 218 8.0 16.0 0.00 0.00 0.00 54 1005.7
20260505220037 82 214 7.0 15.0 0.00 0.00 0.00 65 1005.4
20260505214610 83 175 7.0 15.0 0.00 0.00 0.00 54 1005.6
20260505214556 83 177 8.0 14.0 0.00 0.00 0.00 65 1005.4
20260505213057 82 175 7.0 16.0 0.00 0.00 0.00 54 1005.6
20260505213031 82 182 7.0 17.0 0.00 0.00 0.00 66 1005.4
20260505211553 82 199 6.0 15.0 0.00 0.00 0.00 54 1005.7
20260505211533 82 187 7.0 15.0 0.00 0.00 0.00 66 1005.6
20260505210054 82 156 9.0 24.0 0.00 0.00 0.00 54 1005.8
20260505210028 82 173 9.0 22.0 0.00 0.00 0.00 65 1005.7
20260505204557 82 182 8.0 18.0 0.00 0.00 0.00 54 1006.0
20260505204525 82 171 8.0 18.0 0.00 0.00 0.00 66 1006.0
20260505203052 82 163 9.0 19.0 0.00 0.00 0.00 54 1006.5
20260505203023 82 183 10.0 18.0 0.00 0.00 0.00 65 1006.2
20260505201557 82 144 7.0 26.0 0.00 0.00 0.00 54 1006.5
20260505201520 82 123 6.0 25.0 0.00 0.00 0.00 66 1006.4
20260505200054 81 136 6.0 17.0 0.00 0.00 0.00 54 1006.8
20260505200019 81 187 6.0 16.0 0.00 0.00 0.00 65 1006.5
20260505194557 80 198 8.0 16.0 0.00 0.00 0.00 54 1006.9
20260505194516 80 171 8.0 14.0 0.00 0.00 0.00 65 1006.8
20260505193055 81 152 4.0 11.0 0.00 0.00 0.00 53 1007.0
20260505193015 81 189 5.0 17.0 0.00 0.00 0.00 65 1006.9
20260505191607 79 188 7.0 15.0 0.00 0.00 0.00 53 1007.2
20260505191515 79 169 8.0 15.0 0.00 0.00 0.00 65 1007.3
20260505190023 79 184 6.0 18.0 0.00 0.00 0.00 65 1007.2
20260505184604 79 202 8.0 16.0 0.00 0.00 0.00 52 1007.3
20260505184512 79 130 9.0 13.0 0.00 0.00 0.00 64 1007.3
20260505183124 78 160 7.0 16.0 0.00 0.00 0.00 52 1007.5
20260505183009 78 201 7.0 17.0 0.00 0.00 0.00 64 1007.6
20260505181558 78 240 6.0 14.0 0.00 0.00 0.00 52 1007.4
20260505181506 78 155 6.0 12.0 0.00 0.00 0.00 64 1007.5
20260505180059 77 184 7.0 15.0 0.00 0.00 0.00 52 1007.5
20260505180008 77 184 6.0 14.0 0.00 0.00 0.00 64 1007.4
20260505174555 77 182 7.0 13.0 0.00 0.00 0.00 52 1007.6
20260505174507 77 171 7.0 11.0 0.00 0.00 0.00 63 1007.7
20260505173059 76 157 6.0 11.0 0.00 0.00 0.00 52 1007.7
20260505173002 77 196 6.0 10.0 0.00 0.00 0.00 63 1007.7
20260505171601 76 200 4.0 11.0 0.00 0.00 0.00 52 1007.8
20260505171559 76 201 5.0 10.0 0.00 0.00 0.00 63 1007.8
20260505170056 75 171 4.0 9.0 0.00 0.00 0.00 62 1007.9
20260505170054 75 171 4.0 12.0 0.00 0.00 0.00 51 1007.8
20260505164601 74 167 6.0 10.0 0.00 0.00 0.00 62 1008.0
20260505164555 75 167 4.0 9.0 0.00 0.00 0.00 51 1007.9
20260505163056 74 207 4.0 12.0 0.00 0.00 0.00 51 1008.0
20260505163050 74 207 4.0 8.0 0.00 0.00 0.00 62 1007.9
20260505161619 74 0 2.0 9.0 0.00 0.00 0.00 51 1008.3
20260505161547 74 182 2.0 9.0 0.00 0.00 0.00 62 1008.1
20260505153104 73 171 3.0 14.0 0.00 0.00 0.00 51 1007.8
20260505153035 73 159 3.0 12.0 0.00 0.00 0.00 62 1007.8
20260505151611 72 192 5.0 10.0 0.00 0.00 0.00 50 1008.0
20260505151532 72 183 5.0 9.0 0.00 0.00 0.00 62 1007.9
20260505124555 69 360 7.0 14.0 0.00 0.00 0.00 54 1007.4
20260505124523 69 360 6.0 12.0 0.00 0.00 0.00 65 1007.6
20260505123054 69 360 4.0 14.0 0.00 0.00 0.00 54 1007.2
20260505123027 69 360 5.0 14.0 0.00 0.00 0.00 65 1007.4
20260505121556 69 360 5.0 9.0 0.00 0.00 0.00 54 1007.4
20260505121521 69 360 4.0 9.0 0.00 0.00 0.00 65 1007.6
20260505120110 69 360 3.0 10.0 0.00 0.00 0.00 54 1007.3
20260505120029 69 360 4.0 10.0 0.00 0.00 0.00 65 1007.5
20260505114553 69 360 4.0 14.0 0.00 0.00 0.00 54 1007.2
20260505114519 69 360 5.0 14.0 0.00 0.00 0.00 65 1007.5
20260505113052 69 360 5.0 12.0 0.00 0.00 0.00 54 1007.2
20260505113012 69 360 7.0 14.0 0.00 0.00 0.00 65 1007.2
20260505111555 69 360 6.0 13.0 0.00 0.00 0.00 54 1007.1
20260505111516 69 360 6.0 13.0 0.00 0.00 0.00 65 1007.0
20260505101554 67 360 3.0 9.0 0.00 0.00 0.00 55 1007.0
20260505101511 67 360 3.0 9.0 0.00 0.00 0.00 67 1007.1
20260505100057 67 360 3.0 10.0 0.00 0.00 0.00 56 1007.2
20260505100004 67 360 2.0 10.0 0.00 0.00 0.00 67 1007.3
20260505094553 67 360 4.0 13.0 0.00 0.00 0.00 56 1007.4
20260505094501 67 360 4.0 10.0 0.00 0.00 0.00 68 1007.5
20260505093103 67 360 5.0 11.0 0.00 0.00 0.00 68 1007.7
20260505093057 67 360 5.0 11.0 0.00 0.00 0.00 57 1007.6
20260505091607 67 360 5.0 11.0 0.00 0.00 0.00 68 1007.9
20260505091553 67 360 4.0 9.0 0.00 0.00 0.00 57 1007.8
20260505090058 67 360 3.0 10.0 0.00 0.00 0.00 69 1007.9
20260505090054 67 360 4.0 10.0 0.00 0.00 0.00 57 1007.8
20260505084557 67 360 3.0 11.0 0.00 0.00 0.00 69 1007.9
20260505084553 67 360 2.0 11.0 0.00 0.00 0.00 58 1007.8
20260505083100 67 360 2.0 10.0 0.00 0.00 0.00 70 1008.0
20260505083054 67 360 3.0 10.0 0.00 0.00 0.00 58 1008.0
20260505081557 68 360 4.0 11.0 0.00 0.00 0.00 59 1008.0
20260505081554 68 360 5.0 11.0 0.00 0.00 0.00 70 1008.1
20260505080059 68 360 5.0 10.0 0.00 0.00 0.00 59 1008.2
20260505080051 68 360 5.0 12.0 0.00 0.00 0.00 70 1008.3
20260505074602 68 360 5.0 9.0 0.00 0.00 0.00 59 1008.3
20260505074549 68 360 5.0 9.0 0.00 0.00 0.00 71 1008.4
20260505073112 68 360 5.0 12.0 0.00 0.00 0.00 59 1008.2
20260505073053 68 360 5.0 12.0 0.00 0.00 0.00 71 1008.2
20260505071602 68 360 4.0 10.0 0.00 0.00 0.00 59 1008.3
20260505071557 68 360 4.0 10.0 0.00 0.00 0.00 71 1008.3
20260505070045 67 360 3.0 10.0 0.00 0.00 0.00 71 1008.5
20260505064601 68 360 3.0 12.0 0.00 0.00 0.00 60 1008.6
20260505064543 68 360 2.0 10.0 0.00 0.00 0.00 71 1008.7
20260505063100 68 360 6.0 13.0 0.00 0.00 0.00 60 1008.7
20260505063041 68 360 6.0 13.0 0.00 0.00 0.00 72 1008.8
20260505061559 68 360 6.0 14.0 0.00 0.00 0.00 60 1008.9
20260505061538 68 360 7.0 14.0 0.00 0.00 0.00 72 1008.9
20260505060104 68 360 4.0 11.0 0.00 0.00 0.00 60 1008.9
20260505060045 68 360 4.0 9.0 0.00 0.00 0.00 71 1008.8
20260505054626 68 360 4.0 12.0 0.00 0.00 0.00 59 1009.2
20260505054535 68 360 3.0 12.0 0.00 0.00 0.00 71 1009.1
20260505053108 68 360 4.0 16.0 0.00 0.00 0.00 59 1009.1
20260505053032 68 360 5.0 16.0 0.00 0.00 0.00 71 1009.0
20260505051555 68 360 5.0 14.0 0.00 0.00 0.00 59 1009.2
20260505051530 68 360 5.0 14.0 0.00 0.00 0.00 70 1009.2
20260505041559 69 360 5.0 11.0 0.00 0.00 0.00 58 1009.5
20260505041527 69 360 6.0 12.0 0.00 0.00 0.00 70 1009.4
20260505040059 69 360 4.0 12.0 0.00 0.00 0.00 58 1009.5
20260505040026 69 360 4.0 9.0 0.00 0.00 0.00 70 1009.3
20260505034556 69 360 4.0 11.0 0.00 0.00 0.00 58 1009.5
20260505034524 69 360 4.0 11.0 0.00 0.00 0.00 69 1009.4
20260505033054 69 360 5.0 10.0 0.00 0.00 0.00 57 1009.4
20260505033024 69 360 5.0 10.0 0.00 0.00 0.00 69 1009.3
20260505031606 69 360 4.0 12.0 0.00 0.00 0.00 57 1009.4
20260505031523 69 360 4.0 11.0 0.00 0.00 0.00 69 1009.4
20260505030053 70 360 6.0 12.0 0.00 0.00 0.00 56 1009.7
20260505030022 70 360 6.0 12.0 0.00 0.00 0.00 68 1009.6
20260505024554 70 360 5.0 12.0 0.00 0.00 0.00 56 1009.7
20260505024522 70 360 5.0 12.0 0.00 0.00 0.00 67 1009.6
20260505023114 70 360 5.0 11.0 0.00 0.00 0.00 56 1009.5
20260505023024 70 360 5.0 10.0 0.00 0.00 0.00 67 1009.4
20260505021558 70 360 5.0 10.0 0.00 0.00 0.00 55 1009.3
20260505021527 70 360 5.0 10.0 0.00 0.00 0.00 67 1009.0
20260505020056 70 181 4.0 8.0 0.00 0.00 0.00 55 1009.1
20260505020021 70 198 5.0 7.0 0.00 0.00 0.00 66 1008.9
20260505014605 71 169 4.0 11.0 0.00 0.00 0.00 53 1008.8
20260505014520 71 163 4.0 10.0 0.00 0.00 0.00 65 1008.8
20260505013108 72 178 5.0 10.0 0.00 0.00 0.00 53 1008.7
20260505013019 72 184 6.0 10.0 0.00 0.00 0.00 64 1008.6
20260505011557 72 162 5.0 10.0 0.00 0.00 0.00 52 1008.7
20260505011523 72 187 5.0 9.0 0.00 0.00 0.00 63 1008.6
20260505010100 73 149 4.0 12.0 0.00 0.00 0.00 51 1008.9
20260505010017 73 135 3.0 12.0 0.00 0.00 0.00 63 1008.8
20260505004559 73 182 3.0 9.0 0.00 0.00 0.00 51 1008.8
20260505004521 73 175 3.0 8.0 0.00 0.00 0.00 62 1008.7
20260505003054 74 174 1.0 10.0 0.00 0.00 0.00 49 1008.8
20260505003016 74 189 2.0 9.0 0.00 0.00 0.00 61 1008.7
20260505001600 75 186 5.0 12.0 0.00 0.00 0.00 47 1008.9
20260505001516 75 168 5.0 12.0 0.00 0.00 0.00 59 1008.8
20260505000117 76 185 6.0 15.0 0.00 0.00 0.00 46 1008.9
20260505000021 76 191 5.0 15.0 0.00 0.00 0.00 57 1008.9